Regional Weather Roundup
Issued by NWS

Home | Current Version | Previous Version | Text Only | Print | Product List | Glossary On
Versions: 1 2 3 4 5 6 7 8 9 10 11 12 13 14 15 16 17 18 19 20 21 22 23 24 25 26 27 28 29 30 31 32 33 34 35 36 37 38 39 40 41 42 43 44 45 46 47 48 49 50
000
ASUS44 KBMX 010610
RWRAL

ALABAMA REGIONAL WEATHER ROUNDUP
NATIONAL WEATHER SERVICE BIRMINGHAM AL
100 AM CDT SAT AUG 01 2015

NOTE: "FAIR" INDICATES FEW OR NO CLOUDS BELOW 12,000 FEET
WITH NO SIGNIFICANT WEATHER AND/OR OBSTRUCTIONS TO VISIBILITY.

THE REMARK "TC" DENOTES TEMPERATURE IN DEGREES CELSIUS.

ALZ001>011-014-016>018-020-010700-
NORTH ALABAMA

CITY           SKY/WX    TMP DP  RH WIND       PRES   REMARKS
MUSCLE SHOALS  CLEAR     75  65  70 VRB3      30.04S
6HR MIN TEMP:  75; 6HR MAX TEMP:  87;

HUNTSVILLE     CLEAR     72  61  68 N6        30.03S
6HR MIN TEMP:  69; 6HR MAX TEMP:  88;

DECATUR        CLEAR     67  63  87 NE3       30.03S
6HR MIN TEMP:  67; 6HR MAX TEMP:  85;

HALEYVILLE     FAIR      69  64  84 CALM      30.06F
6HR MIN TEMP:  69; 6HR MAX TEMP:  85;

GADSDEN        CLEAR     70  55  60 CALM      29.99F
6HR MIN TEMP:  70; 6HR MAX TEMP:  88;

$$

ALZ012-013-022-023-030>036-040>044-010700-
WEST CENTRAL ALABAMA

CITY           SKY/WX    TMP DP  RH WIND       PRES   REMARKS
TUSCALOOSA     CLEAR     72  62  71 N8        29.98F
6HR MIN TEMP:  71; 6HR MAX TEMP:  90;

$$

ALZ015-024>027-033>036-040>044-010700-
CENTRAL ALABAMA

CITY           SKY/WX    TMP DP  RH WIND       PRES   REMARKS
BIRMINGHAM     CLEAR     77  58  51 NE10      30.01F
6HR MIN TEMP:  76; 6HR MAX TEMP:  87;

MONTGOMERY     CLEAR     78  73  84 SE3       29.94S
6HR MIN TEMP:  78; 6HR MAX TEMP:  92;

SHELBY CO ARPT CLEAR     78  58  49 VRB3      29.98F
6HR MIN TEMP:  78; 6HR MAX TEMP:  89;

MAXWELL AFB    CLEAR     78  67  67 N7        29.93S
6HR MIN TEMP:  78; 6HR MAX TEMP:  91;

GREENVILLE     FAIR      76  70  82 N5        29.93F
6HR MIN TEMP:  76; 6HR MAX TEMP:  91;

$$

ALZ019-021-028-029-037-038-045>048-010700-
EAST CENTRAL ALABAMA

CITY           SKY/WX    TMP DP  RH WIND       PRES   REMARKS
ANNISTON       CLEAR     68  62  81 CALM      29.99F
6HR MIN TEMP:  67; 6HR MAX TEMP:  89;

ALEXANDER CITY CLEAR     74  59  58 N6        29.97F
6HR MIN TEMP:  74; 6HR MAX TEMP:  89;

AUBURN         PTCLDY    75  73  94 N5        29.97F
6HR MIN TEMP:  75; 6HR MAX TEMP:  81;

$$

ALZ051>064-010700-
SOUTHWEST ALABAMA

CITY           SKY/WX    TMP DP  RH WIND       PRES   REMARKS
MOBILE         CLEAR     76  67  73 N6        29.92F
6HR MIN TEMP:  75; 6HR MAX TEMP:  89;

BROOKLEY FIELD CLEAR     80  65  59 N9        29.91F
6HR MIN TEMP:  78; 6HR MAX TEMP:  86;

EVERGREEN      CLEAR     74  69  85 CALM      29.92F
6HR MIN TEMP:  73; 6HR MAX TEMP:  89;

$$

ALZ049-050-065>069-010700-
SOUTHEAST ALABAMA

CITY           SKY/WX    TMP DP  RH WIND       PRES   REMARKS
DOTHAN         MOCLDY    74  72  93 CALM      29.94F
6HR MIN TEMP:  74; 6HR MAX TEMP:  86; 6HR PCP:  0.01;

OZARK          MOCLDY    75  73  94 NE5       29.91F
6HR MIN TEMP:  75; 6HR MAX TEMP:  85;

TROY           PTCLDY    75  72  90 CALM      29.94F
6HR MIN TEMP:  75; 6HR MAX TEMP:  85;

EUFAULA        MOCLDY    76  75  97 CALM      29.92F
6HR MIN TEMP:  75; 6HR MAX TEMP:  80; 6HR PCP: TRACE;

$$


USA.gov is the U.S. government's official web portal to all federal, state and local government web resources and services.